Multibeam Report for NF-06-07-GRNMS


Ship Name: Nancy Foster
Chief Scientist: McFall, Greg
National Oceanic and Atmospheric Administration
Source Organization: National Oceanic and Atmospheric Administration (NOAA)
Start Date: 2006-05-26
End Date: 2006-06-11


View ISO Metadata

Visit the full NCEI Bathymetry Viewer


Multibeam Bathymetry

Cruise Details

Project: Gray's Reef Natioanl Marine Sanctuary
Instrument: Simrad EM1002

Data Quality

Number of Files: 96
Number of Records: 1147018
BATHYMETRY DATA Quantity Percentage
Number of Beams 127318998 100%
Number of Good Beams 127297075 99.98%
Number of Zero Beams 21923 0.02%
Number of Flagged Beams 0 0%

Navigation Totals

Total Time: 36.7497 hours
Total Track Length: 295.4985 km
Average Speed: 8.041 km/hr (4.3418 knots)

Cruise Bounds

Northern Extent: 31.6167
Southern Extent: 31.323969
Western Extent: -80.928856
Eastern Extent: -80.781815

Limits

Minimum Sonar Depth 2.47 Maximum Sonar Depth 4.86
Minimum Altitude 0 Maximum Altitude 26.88
Minimum Depth 2.21 Maximum Depth 1009.69

File Information

Full Resolution Bathymetry as collected (raw): 94

Files File Size Description
0001_20060528_131202_raw.mb56.gz 44.23MB Simrad multibeam vendor format
0002_20060528_134203_raw.mb56.gz 40.82MB Simrad multibeam vendor format
0003_20060528_142117_raw.mb56.gz 43.66MB Simrad multibeam vendor format
0004_20060528_145117_raw.mb56.gz 40.46MB Simrad multibeam vendor format
0005_20060529_025056_raw.mb56.gz 45.41MB Simrad multibeam vendor format
0006_20060529_032056_raw.mb56.gz 45.30MB Simrad multibeam vendor format
0007_20060529_035056_raw.mb56.gz 45.90MB Simrad multibeam vendor format
0008_20060529_042057_raw.mb56.gz 32.34MB Simrad multibeam vendor format
0009_20060529_044211_raw.mb56.gz 30.63MB Simrad multibeam vendor format
0010_20060529_050300_raw.mb56.gz 45.68MB Simrad multibeam vendor format
0011_20060529_053301_raw.mb56.gz 45.31MB Simrad multibeam vendor format
0012_20060529_060301_raw.mb56.gz 45.66MB Simrad multibeam vendor format
0013_20060529_063301_raw.mb56.gz 47.10MB Simrad multibeam vendor format
0014_20060529_070302_raw.mb56.gz 47.80MB Simrad multibeam vendor format
0015_20060529_073302_raw.mb56.gz 46.03MB Simrad multibeam vendor format
0016_20060529_080302_raw.mb56.gz 46.47MB Simrad multibeam vendor format
0017_20060529_083303_raw.mb56.gz 46.17MB Simrad multibeam vendor format
0018_20060529_090303_raw.mb56.gz 46.31MB Simrad multibeam vendor format
0019_20060529_093303_raw.mb56.gz 46.25MB Simrad multibeam vendor format
0020_20060529_100304_raw.mb56.gz 45.69MB Simrad multibeam vendor format
0021_20060529_103304_raw.mb56.gz 45.12MB Simrad multibeam vendor format
0022_20060529_110304_raw.mb56.gz 45.86MB Simrad multibeam vendor format
0023_20060529_113305_raw.mb56.gz 45.91MB Simrad multibeam vendor format
0024_20060529_120305_raw.mb56.gz 3.53MB Simrad multibeam vendor format
0025_20060529_203224_raw.mb56.gz 47.65MB Simrad multibeam vendor format
0026_20060529_210224_raw.mb56.gz 46.01MB Simrad multibeam vendor format
0027_20060529_213224_raw.mb56.gz 46.52MB Simrad multibeam vendor format
0028_20060529_220225_raw.mb56.gz 46.08MB Simrad multibeam vendor format
0029_20060529_223225_raw.mb56.gz 48.30MB Simrad multibeam vendor format
0030_20060529_230225_raw.mb56.gz 45.46MB Simrad multibeam vendor format
0031_20060529_233226_raw.mb56.gz 46.03MB Simrad multibeam vendor format
0032_20060530_000226_raw.mb56.gz 44.50MB Simrad multibeam vendor format
0033_20060530_003226_raw.mb56.gz 45.76MB Simrad multibeam vendor format
0034_20060530_010227_raw.mb56.gz 46.16MB Simrad multibeam vendor format
0035_20060530_013227_raw.mb56.gz 44.27MB Simrad multibeam vendor format
0036_20060530_020228_raw.mb56.gz 43.92MB Simrad multibeam vendor format
0037_20060530_023228_raw.mb56.gz 44.04MB Simrad multibeam vendor format
0038_20060530_030228_raw.mb56.gz 45.97MB Simrad multibeam vendor format
0039_20060530_033229_raw.mb56.gz 27.74MB Simrad multibeam vendor format
0040_20060530_210818_raw.mb56.gz 45.49MB Simrad multibeam vendor format
0041_20060530_213819_raw.mb56.gz 45.23MB Simrad multibeam vendor format
0042_20060530_220819_raw.mb56.gz 44.46MB Simrad multibeam vendor format
0043_20060530_223820_raw.mb56.gz 46.40MB Simrad multibeam vendor format
0044_20060530_230820_raw.mb56.gz 45.38MB Simrad multibeam vendor format
0045_20060530_233820_raw.mb56.gz 43.68MB Simrad multibeam vendor format
0046_20060531_000821_raw.mb56.gz 33.84MB Simrad multibeam vendor format
0047_20060531_212840_raw.mb56.gz 44.52MB Simrad multibeam vendor format
0048_20060531_215840_raw.mb56.gz 45.15MB Simrad multibeam vendor format
0049_20060531_222841_raw.mb56.gz 45.90MB Simrad multibeam vendor format
0050_20060531_225841_raw.mb56.gz 45.78MB Simrad multibeam vendor format
0051_20060531_232841_raw.mb56.gz 45.59MB Simrad multibeam vendor format
0052_20060531_235842_raw.mb56.gz 44.23MB Simrad multibeam vendor format
0053_20060601_002842_raw.mb56.gz 39.74MB Simrad multibeam vendor format
0054_20060601_015658_raw.mb56.gz 43.73MB Simrad multibeam vendor format
0055_20060601_022658_raw.mb56.gz 44.62MB Simrad multibeam vendor format
0056_20060601_025659_raw.mb56.gz 44.11MB Simrad multibeam vendor format
0057_20060601_032659_raw.mb56.gz 2.84MB Simrad multibeam vendor format
0060_20060606_153154_raw.mb56.gz 26.88MB Simrad multibeam vendor format
0061_20060606_155737_raw.mb56.gz 26.67MB Simrad multibeam vendor format
0062_20060606_162511_raw.mb56.gz 23.25MB Simrad multibeam vendor format
0063_20060606_164837_raw.mb56.gz 24.71MB Simrad multibeam vendor format
0064_20060606_171054_raw.mb56.gz 25.19MB Simrad multibeam vendor format
0065_20060606_173237_raw.mb56.gz 31.07MB Simrad multibeam vendor format
0066_20060606_182442_raw.mb56.gz 6.29MB Simrad multibeam vendor format
0067_20060606_184218_raw.mb56.gz 25.98MB Simrad multibeam vendor format
0068_20060606_190635_raw.mb56.gz 23.85MB Simrad multibeam vendor format
0069_20060606_192907_raw.mb56.gz 25.96MB Simrad multibeam vendor format
0070_20060606_195833_raw.mb56.gz 25.63MB Simrad multibeam vendor format
0071_20060606_202117_raw.mb56.gz 4.98MB Simrad multibeam vendor format
0072_20060606_205707_raw.mb56.gz 18.01MB Simrad multibeam vendor format
0073_20060607_154438_raw.mb56.gz 25.59MB Simrad multibeam vendor format
0074_20060607_160710_raw.mb56.gz 25.58MB Simrad multibeam vendor format
0075_20060607_164358_raw.mb56.gz 26.14MB Simrad multibeam vendor format
0076_20060607_170736_raw.mb56.gz 32.86MB Simrad multibeam vendor format
0077_20060607_174435_raw.mb56.gz 3.79MB Simrad multibeam vendor format
0078_20060607_175608_raw.mb56.gz 13.56MB Simrad multibeam vendor format
0079_20060607_181310_raw.mb56.gz 6.92MB Simrad multibeam vendor format
0080_20060607_182952_raw.mb56.gz 24.50MB Simrad multibeam vendor format
0081_20060607_185201_raw.mb56.gz 24.58MB Simrad multibeam vendor format
0082_20060607_191643_raw.mb56.gz 25.56MB Simrad multibeam vendor format
0083_20060607_193913_raw.mb56.gz 25.23MB Simrad multibeam vendor format
0084_20060607_200243_raw.mb56.gz 25.45MB Simrad multibeam vendor format
0085_20060607_204002_raw.mb56.gz 27.97MB Simrad multibeam vendor format
0086_20060607_210351_raw.mb56.gz 26.17MB Simrad multibeam vendor format
0087_20060607_213544_raw.mb56.gz 18.25MB Simrad multibeam vendor format
0088_20060607_215523_raw.mb56.gz 24.27MB Simrad multibeam vendor format
0090_20060608_164210_raw.mb56.gz 27.47MB Simrad multibeam vendor format
0091_20060608_170653_raw.mb56.gz 26.01MB Simrad multibeam vendor format
0092_20060608_174935_raw.mb56.gz 8.27MB Simrad multibeam vendor format
0093_20060608_180103_raw.mb56.gz 30.28MB Simrad multibeam vendor format
0094_20060608_182402_raw.mb56.gz 25.87MB Simrad multibeam vendor format
0095_20060608_184927_raw.mb56.gz 36.52MB Simrad multibeam vendor format
0096_20060608_192258_raw.mb56.gz 27.65MB Simrad multibeam vendor format
0097_20060608_195231_raw.mb56.gz 15.22MB Simrad multibeam vendor format

Metadata Files: 1

Files File Size Description
NF-06-07-GRNMS_Multibeam.xml NGDC created ISO metadata

Ancillary Files: 1

Files File Size Description
tide.tar.gz 11.7KB Tidal data